KEPLER-12 (BOBA) (47446 NORAD) Tracking and Keplerian Element Data

This shows tracking and keplerian element data for the satellite.

Feedback or suggestion? Click here.




ElementValue
Catalog47446
NameKEPLER-12 (BOBA)
Epoch Orbit1199
Epoch Day101.92606559
Epoch Year2021
RAAN164.3152
Inclination97.495
Eccentricity0.0010331
Argument of Perigee331.7537
Mean Anonmoly28.3132
Mean Motion15.12864079
Decay Rate1.142E-05
L11 47446U 21006AK 21101.92606559 .00001142 00000-0 68587-4 0 9997
L22 47446 97.4950 164.3152 0010331 331.7537 28.3132 15.12864079 11992

Live tracking and technical data element details for KEPLER-12 (BOBA) (NORAD 47446). KEPLER-12 (BOBA) can be tracked NOW for your location showing map with azimuth and elevation plus other details from your city location.

Track the satellite on the map from your city or location and see movement details for azimuth, elevation, latitude, longitude, range, height, and movement on the map or in text.







IsCatalogInMostPopularTable: catalog: 47446, numindb: 16
Update: records affected: 1



GetName: 47446 KEPLER-12 (BOBA)

Hit Count: updated at: Tue, 13 Apr 2021 04:51:36 GMT